Погода в деревне Песь

Россия / Новгородская область     58°55′04″N   34°10′07″E
темп.,
°C
ветер,
м/с
пор.,
м/с
влажн.,
%
обл.,
%
осадки,
мм/ч
давл.,
гПа
погр.,
м
29 июня, ср
ср2900:00+11в210610 0.0 1025197
03:00+9вюв24740 0.0 102677
06:00+12вюв24690 0.0 1025138
09:00+18вюв23420 0.0 1024898
12:00+22вюв33300 0.0 10231604
15:00+24вюв22260 0.0 10221919
18:00+23вюв21280 0.0 10211925
21:00+17юв115431 0.0 102111
30 июня, чт
чт3000:00+12ююв11655 0.0 102110
03:00+11ю11733 0.0 102210
06:00+15сз006346 0.0 102140
09:00+21ссз133988 0.0 1021682
12:00+25ссв34288 0.0 10201800
15:00+27ссв342198 0.0 10202120
18:00+26ссв242733 0.0 10191902
21:00+19с22595 0.0 102036
1 июля, пт
пт100:00+16с22710 0.0 102114
03:00+14ссз22765 0.0 102221
06:00+17ссз13706 0.0 1022100
09:00+24с24455 0.0 1022686
12:00+27с35375 0.0 10212077
15:00+30с353199 0.0 10202855
18:00+29ссв343298 0.0 10192600
21:00+22с116319 0.0 102016
2 июля, сб
сб200:00+18ссз23700 0.0 102144
03:00+17ссз226823 0.0 102130
06:00+18сз266451 0.0 1021153
09:00+26сз353920 0.0 1020485
12:00+29ссз34328 0.0 10191564
15:00+31сз342716 0.0 10173070
18:00+30сз443180 0.0 10162170
21:00+23с2560100 0.0 1017117
3 июля, вс
вс300:00+19ссв2274100 0.0 101826
03:00+18всв1179100 0.0 101711
06:00+20зюз117299 0.0 101740
09:00+26сз01476 0.0 1016623
12:00+30ссз123061 0.0 10152282
15:00+31ссз2225100 0.0 10143095
18:00+30сз322934 0.0 10142599
21:00+22св226676 0.0 101430